Location: Oklahoma City
(35.4680°N, 97.5160°W)
Time: 18:28:12
(UTC-05:00)

ISS - All Passes

Search period start: 31 July 2015 00:00
Search period end: 10 August 2015 00:00
Orbit: 401 x 403 km, 51.6° (Epoch: 31 July)

Date Brightness Start Highest point End Pass type
(mag) Time Alt. Az. Time Alt. Az. Time Alt. Az.
31 Jul - 03:46:11 10° N 03:47:20 12° NNE 03:48:35 10° NE visible
31 Jul - 05:21:02 10° NW 05:24:17 75° NE 05:27:32 10° SE visible
31 Jul - 21:58:05 10° WSW 22:01:17 62° NW 22:04:31 10° NE visible
31 Jul - 23:37:36 10° NW 23:38:18 10° NNW 23:38:56 10° N visible
01 Aug - 04:28:13 10° NNW 04:31:15 35° NE 04:34:18 10° ESE visible
01 Aug - 06:05:13 10° W 06:07:31 18° SW 06:09:44 10° S visible
01 Aug - 21:05:08 10° SW 21:08:19 57° SE 21:11:31 10° NE visible
01 Aug - 22:42:53 10° WNW 22:45:01 16° NNW 22:47:06 10° NNE visible
02 Aug - 03:35:36 10° NNW 03:38:06 20° NNE 03:40:38 10° E visible
02 Aug - 05:11:35 10° WNW 05:14:38 37° SW 05:17:39 10° SSE visible
02 Aug - 20:12:41 10° S 20:15:25 25° SE 20:18:11 10° ENE daylight
02 Aug - 21:49:00 10° W 21:51:48 26° NNW 21:54:37 10° NNE visible
03 Aug - 02:43:17 10° N 02:44:51 13° NNE 02:46:28 10° NE night (unlit)
03 Aug - 04:18:26 10° NW 04:21:42 87° SW 04:24:57 10° SE night (unlit)
03 Aug - 19:21:16 10° SSE 19:22:33 12° SE 19:23:59 10° ESE daylight
03 Aug - 20:55:31 10° WSW 20:58:41 50° NW 21:01:53 10° NE visible
04 Aug - 03:25:32 10° NW 03:28:40 42° NE 03:31:47 10° ESE night (unlit)
04 Aug - 05:02:57 10° W 05:04:51 14° SW 05:06:39 10° SSW night (unlit)
04 Aug - 20:02:27 10° SW 20:05:40 73° SE 20:08:55 10° NE daylight
04 Aug - 21:40:35 10° WNW 21:42:27 14° NNW 21:44:16 10° N visible
05 Aug - 02:32:50 10° NNW 02:35:30 23° NNE 02:38:13 10° E night (unlit)
05 Aug - 04:09:03 10° WNW 04:11:58 30° SW 04:14:51 10° SSE night (unlit)
05 Aug - 19:09:49 10° SSW 19:12:44 31° SE 19:15:40 10° ENE daylight
05 Aug - 20:46:32 10° W 20:49:11 23° NNW 20:51:50 10° NNE daylight
06 Aug - 01:40:24 10° N 01:42:15 14° NNE 01:44:11 10° ENE night (unlit)
06 Aug - 03:15:47 10° NW 03:19:01 70° SW 03:22:15 10° SE night (unlit)
06 Aug - 18:17:58 10° SSE 18:19:50 15° SE 18:21:48 10° E daylight
06 Aug - 19:52:55 10° WSW 19:56:01 41° NW 19:59:08 10° NE daylight
07 Aug - 02:22:48 10° NW 02:25:59 52° NE 02:29:10 10° ESE night (unlit)
07 Aug - 04:00:48 10° WSW 04:02:07 12° SW 04:03:18 10° SSW night (unlit)
07 Aug - 18:59:42 10° SW 19:02:57 90° W 19:06:13 10° NE daylight
07 Aug - 20:38:15 10° NW 20:39:49 13° NNW 20:41:19 10° N daylight
08 Aug - 01:30:01 10° NNW 01:32:50 27° NE 01:35:41 10° E night (unlit)
08 Aug - 03:06:29 10° WNW 03:09:13 25° SW 03:11:55 10° S night (unlit)
08 Aug - 18:06:55 10° SSW 18:09:57 38° SE 18:13:01 10° ENE daylight
08 Aug - 19:44:00 10° W 19:46:30 20° NNW 19:48:58 10° NNE daylight
09 Aug - 00:37:28 10° NNW 00:39:35 16° NNE 00:41:45 10° ENE visible
09 Aug - 02:13:03 10° WNW 02:16:16 55° SW 02:19:26 10° SSE night (unlit)
09 Aug - 17:14:46 10° S 17:17:01 18° SE 17:19:22 10° E daylight
09 Aug - 18:50:16 10° WSW 18:53:17 34° NW 18:56:18 10° NNE daylight
09 Aug - 23:45:29 10° N 23:46:13 11° NNE 23:47:02 10° NE visible
